Location: Newark
(44.3248°N, 23.7839°E)
Time: 00:02:17
(UTC+00:00)

PCSat - Pass Details

Date: 15 April 2024
Orbit: 783 x 792 km, 67.1° (Epoch: 21 May)

Event Time Altitude Azimuth Distance (km) Brightness Sun altitude
Rises 19:22:13 0° 216° (SW) 3,264 12.7 -21.7°
Reaches altitude 10° 19:24:38 10° 219° (SW) 2,341 12.0 -22.0°
Maximum altitude 19:29:59 70° 303° (WNW) 838 9.8 -22.7°
Drops below altitude 10° 19:35:24 10° 28° (NNE) 2,362 12.2 -23.4°
Sets 19:37:50 0° 30° (NNE) 3,296 13.0 -23.7°
